Regional Weather Roundup
Issued by NWS

Home | Current Version | Previous Version | Graphics & Text | Print | Product List | Glossary On
Versions: 1 2 3 4 5 6 7 8 9 10 11 12 13 14 15 16 17 18 19 20 21 22 23 24 25 26 27 28 29 30 31 32 33 34 35 36 37 38 39 40 41 42 43 44 45 46 47 48 49 50
000
ASUS43 KBIS 300010
RWRND

NORTH DAKOTA REGIONAL WEATHER ROUNDUP
NATIONAL WEATHER SERVICE BISMARCK ND
700 PM CDT WED JUL 29 2015

NOTE: "FAIR" INDICATES FEW OR NO CLOUDS BELOW 12,000 FEET WITH NO
SIGNIFICANT WEATHER AND/OR OBSTRUCTIONS TO VISIBILITY.


NDZ001>003-009>011-017-300100-
NORTHWEST NORTH DAKOTA

CITY           SKY/WX    TMP DP  RH WIND       PRES   REMARKS
WILLISTON      SUNNY     81  43  26 NW21G26   30.06R
6HR MIN TEMP:  78; 6HR MAX TEMP:  84;

MINOT          SUNNY     80  48  32 W21G30    29.98R
MINOT AFB      SUNNY     81  50  33 W21G26    29.96S
$$

NDZ018>021-031>035-040>046-300100-
SOUTHWEST NORTH DAKOTA

CITY           SKY/WX    TMP DP  RH WIND       PRES   REMARKS
BISMARCK       SUNNY     82  46  28 W16G28    30.03F
6HR MIN TEMP:  78; 6HR MAX TEMP:  83;

DICKINSON      SUNNY     79  44  28 NW18      30.08S
GARRISON         N/A     78  51  38 W13G25    30.01F
6HR MIN TEMP:  73; 6HR MAX TEMP:  80;

HETTINGER ARPT SUNNY     80  40  23 W14       30.12F
$$

NDZ004>008-012>016-024-026-027-054-300100-
NORTHEAST NORTH DAKOTA

CITY           SKY/WX    TMP DP  RH WIND       PRES   REMARKS
GRAND FORKS    MOSUNNY   80  54  40 NW15G31   29.85R
GRND FRKS AFB  SUNNY     78  54  43 NW15G25   29.87R
DEVILS LAKE    MOSUNNY   79  54  41 NW18G26   29.91S
$$

NDZ022-023-025-028>030-036>039-047>053-300100-
SOUTHEAST NORTH DAKOTA

CITY           SKY/WX    TMP DP  RH WIND       PRES   REMARKS
FARGO          SUNNY     80  54  40 W15       29.92R
6HR MIN TEMP:  78; 6HR MAX TEMP:  82;

JAMESTOWN      SUNNY     78  52  40 W17G25    29.98R
$$




USA.gov is the U.S. government's official web portal to all federal, state and local government web resources and services.